Wind_Speed
41 41 42 42 43 44 44 44 45 46 47 47 48 49 50 51 52 53 53 54 54 55 55 56 57 57 58 59 57 56 55 54 53 53 52 51 49 48
41 42 43 43 44 44 45 46 46 47 46 47 48 49 50 51 52 54 54 54 55 55 57 57 58 59 59 59 59 58 58 57 56 55 55 54 53 51
42 43 44 44 45 46 46 46 47 47 47 48 49 50 51 52 53 54 54 55 55 55 56 57 58 58 59 59 59 59 59 59 58 56 56 56 55 54
44 44 44 44 44 45 46 46 47 47 48 49 50 51 52 53 54 54 55 56 56 56 57 58 59 60 60 60 60 60 60 60 60 58 57 57 57 57
44 44 44 44 44 45 46 47 47 48 48 49 51 52 53 54 54 55 56 57 58 58 58 59 60 61 62 62 62 62 61 61 61 60 59 58 58 59
43 44 44 45 45 46 46 47 48 49 49 50 50 52 53 54 54 55 56 57 59 59 60 61 61 62 63 64 63 63 62 63 62 62 61 60 60 60
44 44 44 45 45 46 46 47 48 49 49 50 50 51 52 54 55 55 56 56 58 59 59 60 61 62 62 64 65 65 64 63 64 63 63 63 62 62
43 43 44 44 45 46 46 47 47 48 49 50 50 51 51 53 54 55 56 56 56 57 58 58 59 61 62 63 64 64 64 63 63 63 63 64 64 63
43 43 44 44 44 45 45 46 47 47 48 49 49 50 51 52 53 54 55 55 54 55 56 56 57 58 60 62 63 63 63 63 63 63 63 63 64 64
43 43 43 43 43 43 43 43 44 45 46 47 48 50 51 53 53 53 53 54 54 55 55 54 55 56 58 60 61 62 62 63 62 62 63 63 63 64
43 43 43 43 43 43 42 42 43 44 45 47 48 48 50 51 51 52 52 53 53 53 55 55 54 55 55 56 58 60 61 61 61 62 61 62 63 64
42 43 43 43 43 43 42 43 43 44 46 47 47 47 47 48 49 50 50 50 51 51 52 53 53 54 53 54 56 58 60 61 61 61 62 62 62 62
42 42 43 43 43 43 43 43 44 45 45 46 45 45 45 45 45 46 47 47 48 48 49 50 50 51 52 51 53 55 57 59 60 60 61 62 61 61
42 42 43 43 43 43 43 43 44 44 44 43 43 43 43 44 44 44 44 45 46 46 46 47 47 48 48 48 49 51 53 55 57 58 58 59 60 60
42 43 43 43 43 43 43 43 43 43 42 42 42 42 42 42 42 42 42 42 42 43 43 44 45 45 46 46 46 48 49 51 53 55 55 56 56 56
42 43 43 43 43 43 43 43 43 42 41 41 41 41 41 41 41 41 40 40 40 40 41 41 41 43 43 44 44 45 47 48 50 52 53 52 53 54
43 43 43 43 43 43 43 43 42 42 41 41 40 40 39 39 38 38 38 38 39 39 40 40 41 41 41 41 42 43 44 46 48 49 50 50 50 51
43 43 43 43 43 42 42 42 41 40 39 38 38 37 36 36 35 36 36 37 37 37 37 38 39 39 39 39 40 40 41 43 45 47 48 48 48 49
42 42 42 42 42 41 41 40 39 37 36 36 35 35 35 34 34 34 34 34 35 35 35 35 36 36 36 37 37 38 39 40 41 43 45 46 45 46
41 40 40 40 39 39 39 37 36 36 35 35 35 35 34 33 33 34 34 34 34 33 33 33 34 35 34 34 34 35 37 37 38 40 42 43 44 45
39 38 38 38 38 38 37 36 35 35 35 35 35 34 33 33 33 33 33 33 33 32 32 32 32 33 33 33 33 32 33 34 36 38 40 41 42 42
37 36 37 37 37 37 36 36 35 35 34 34 34 33 33 32 32 32 32 31 31 30 30 30 30 30 31 31 30 30 31 32 32 34 36 39 40 40
35 36 36 37 37 36 36 35 34 34 33 33 33 32 31 31 31 31 31 30 29 28 27 27 27 27 27 27 27 27 28 29 31 31 33 35 37 38
Wind_Direction
286 285 284 282 280 276 276 275 273 271 269 268 267 265 264 264 264 264 263 263 262 259 257 256 255 255 254 253 252 252 252 252 253 252 250 249 249 251
288 286 285 283 281 278 276 276 275 272 270 267 266 265 264 264 264 264 264 263 262 261 259 257 255 255 255 255 253 252 252 252 253 253 250 248 247 248
289 288 286 284 282 279 277 276 276 273 271 268 267 266 266 265 265 265 264 264 263 261 259 259 258 257 255 255 254 253 252 252 252 252 251 249 248 248
290 289 288 286 283 281 279 278 277 275 272 270 268 267 267 266 266 266 265 264 262 261 260 259 258 257 256 255 254 253 253 252 252 251 251 250 249 249
290 290 289 287 285 283 281 279 277 276 274 272 270 269 268 268 267 267 266 265 262 261 261 260 258 257 256 255 253 253 252 252 252 251 251 251 250 249
292 291 289 288 287 285 283 281 279 277 276 275 273 271 270 269 268 268 267 266 264 263 262 261 259 258 257 256 255 254 252 251 251 252 250 250 250 249
294 292 291 290 289 287 285 283 282 280 278 277 276 274 272 271 269 269 268 267 266 265 263 262 260 259 257 257 256 255 254 252 250 250 250 250 249 249
295 294 293 292 291 290 288 286 284 282 280 278 277 276 275 274 272 270 269 268 267 265 264 262 260 259 257 256 256 255 254 253 251 251 250 250 249 248
296 295 295 294 293 292 290 288 286 284 283 281 279 278 277 275 274 272 271 269 267 266 264 263 261 260 257 256 255 254 253 252 251 251 250 250 249 248
296 296 296 296 294 293 293 291 289 288 286 284 283 281 279 278 276 274 272 270 268 267 265 264 263 261 260 257 255 253 252 251 250 250 250 249 248 247
297 297 297 297 296 294 293 292 291 290 289 288 286 284 282 279 278 276 274 272 269 268 266 265 263 262 260 257 255 254 253 251 250 249 248 247 247 247
298 298 298 298 297 296 295 293 292 292 291 290 288 285 283 282 280 278 276 274 271 268 267 265 263 262 259 258 256 254 252 251 250 249 248 247 246 246
299 299 299 299 298 297 297 296 295 294 292 291 289 287 285 283 282 280 278 276 273 271 268 266 264 262 260 258 256 255 253 251 249 248 248 247 246 245
299 300 300 300 299 298 298 298 297 296 294 291 290 289 287 284 283 281 279 278 276 274 270 267 264 262 260 258 255 254 253 251 249 248 247 246 245 245
298 299 299 299 299 299 299 299 299 297 295 293 292 290 288 286 283 282 280 279 277 275 272 269 266 263 260 259 257 254 252 250 248 247 245 244 244 243
298 299 300 300 300 299 299 300 300 298 296 294 293 291 289 287 285 283 281 279 278 276 274 271 268 265 262 260 257 254 252 250 248 247 245 243 242 241
298 299 300 300 300 300 300 300 300 299 298 296 294 292 290 288 286 285 282 281 279 277 274 272 270 268 265 262 258 255 252 250 248 247 244 242 241 240
298 299 299 300 300 300 300 300 300 299 298 297 296 294 291 289 288 287 285 283 281 279 276 273 271 267 263 261 260 258 255 252 249 246 242 240 239 238
299 299 300 300 300 301 301 301 300 299 299 298 297 296 294 291 290 290 288 286 284 282 279 275 271 268 264 261 259 259 256 251 247 243 241 238 237 237
299 299 300 301 301 302 302 301 300 298 298 298 297 296 294 292 291 291 290 287 286 283 280 277 273 270 266 261 258 257 255 252 247 242 239 236 235 235
299 300 301 302 303 303 302 301 300 298 297 297 297 297 295 294 292 292 291 290 287 283 280 278 275 271 267 263 259 256 254 250 245 241 238 236 234 232
300 301 302 303 303 303 301 300 299 297 297 297 297 297 296 294 293 292 291 290 288 285 282 278 275 272 269 265 260 255 251 247 243 238 236 235 232 230
300 301 303 304 304 303 301 301 299 298 298 298 297 296 296 295 294 293 290 289 287 286 284 281 277 272 269 265 260 254 247 243 239 237 235 232 230 228
Height
5646 5643 5640 5638 5636 5635 5633 5632 5632 5631 5631 5630 5629 5628 5628 5629 5630 5630 5632 5633 5634 5636 5638 5641 5644 5647 5650 5653 5656 5659 5662 5665 5668 5671 5674 5678 5681 5683
5634 5631 5628 5626 5624 5622 5620 5619 5618 5617 5617 5616 5614 5614 5614 5615 5615 5616 5617 5618 5619 5620 5622 5625 5628 5631 5633 5637 5640 5643 5646 5650 5653 5657 5660 5663 5667 5670
5622 5619 5616 5614 5611 5609 5607 5605 5604 5603 5602 5602 5600 5600 5600 5600 5601 5601 5602 5603 5603 5604 5606 5608 5611 5613 5616 5619 5623 5627 5630 5634 5637 5641 5644 5648 5652 5656
5611 5607 5604 5601 5598 5596 5594 5592 5590 5588 5588 5587 5586 5585 5585 5585 5586 5586 5586 5587 5587 5588 5589 5591 5593 5596 5599 5602 5605 5609 5613 5617 5621 5625 5629 5633 5637 5640
5599 5595 5592 5589 5586 5583 5581 5578 5576 5575 5573 5572 5571 5570 5570 5570 5570 5570 5570 5570 5570 5571 5572 5574 5575 5577 5581 5584 5587 5591 5596 5600 5604 5608 5612 5616 5620 5624
5587 5583 5579 5576 5572 5569 5567 5564 5562 5560 5558 5557 5556 5555 5554 5553 5553 5554 5554 5553 5553 5553 5554 5555 5557 5559 5562 5565 5569 5572 5576 5581 5585 5590 5594 5599 5603 5608
5575 5571 5567 5563 5559 5556 5553 5550 5548 5546 5544 5542 5541 5539 5538 5537 5536 5536 5536 5536 5536 5535 5536 5537 5538 5540 5542 5545 5548 5552 5557 5561 5566 5570 5575 5580 5585 5590
5563 5559 5555 5551 5547 5543 5539 5536 5533 5531 5529 5527 5525 5523 5522 5520 5519 5518 5518 5518 5519 5519 5518 5519 5519 5521 5523 5526 5529 5533 5537 5541 5546 5551 5556 5561 5565 5571
5552 5547 5543 5538 5534 5530 5526 5522 5519 5516 5514 5512 5509 5507 5505 5504 5503 5502 5500 5500 5500 5499 5499 5501 5501 5502 5504 5507 5510 5513 5517 5522 5526 5531 5536 5541 5546 5551
5540 5536 5531 5526 5522 5518 5513 5509 5505 5502 5499 5497 5494 5492 5489 5486 5485 5484 5482 5482 5482 5481 5480 5482 5483 5484 5486 5488 5490 5494 5497 5502 5506 5511 5516 5522 5527 5532
5529 5524 5519 5515 5510 5506 5502 5497 5493 5489 5485 5482 5479 5475 5473 5470 5468 5467 5466 5465 5465 5464 5463 5464 5465 5466 5468 5469 5472 5474 5477 5481 5486 5491 5496 5501 5507 5512
5517 5513 5508 5503 5498 5493 5489 5485 5481 5477 5472 5468 5464 5461 5458 5455 5452 5450 5449 5448 5447 5447 5446 5446 5447 5447 5450 5452 5453 5455 5458 5461 5466 5471 5476 5481 5486 5492
5506 5501 5496 5491 5486 5481 5476 5472 5468 5463 5459 5455 5451 5447 5444 5441 5438 5435 5433 5432 5431 5430 5429 5429 5429 5429 5430 5434 5435 5436 5439 5442 5446 5451 5456 5461 5467 5472
5495 5490 5484 5479 5474 5469 5464 5460 5455 5450 5445 5441 5438 5434 5430 5427 5424 5421 5419 5417 5415 5414 5413 5412 5412 5413 5414 5416 5418 5419 5421 5424 5428 5432 5437 5442 5447 5453
5483 5478 5473 5468 5462 5457 5452 5447 5442 5437 5433 5429 5425 5421 5417 5413 5410 5408 5405 5403 5401 5399 5398 5397 5397 5397 5398 5400 5401 5403 5405 5408 5411 5415 5419 5424 5430 5435
5472 5467 5461 5456 5450 5445 5440 5435 5430 5425 5420 5416 5412 5408 5404 5400 5397 5394 5392 5389 5388 5386 5384 5382 5382 5382 5383 5384 5385 5387 5389 5392 5395 5398 5402 5407 5413 5418
5460 5455 5449 5444 5439 5433 5428 5422 5417 5412 5408 5403 5399 5395 5391 5387 5384 5381 5378 5376 5374 5372 5371 5369 5368 5367 5368 5369 5371 5372 5374 5376 5379 5382 5386 5392 5397 5403
5448 5443 5438 5432 5427 5421 5416 5411 5405 5400 5396 5391 5387 5383 5379 5376 5372 5369 5366 5363 5360 5358 5356 5355 5354 5353 5354 5355 5356 5357 5359 5361 5364 5367 5371 5377 5383 5388
5436 5431 5426 5421 5415 5410 5404 5399 5394 5389 5384 5380 5376 5372 5368 5365 5361 5358 5354 5351 5348 5346 5343 5341 5340 5340 5341 5342 5343 5343 5344 5346 5349 5352 5357 5363 5369 5375
5424 5419 5414 5409 5404 5399 5393 5388 5383 5379 5374 5370 5366 5362 5358 5354 5350 5347 5343 5339 5337 5334 5332 5329 5328 5327 5327 5329 5331 5332 5332 5333 5335 5339 5344 5349 5355 5361
5413 5408 5403 5398 5393 5388 5383 5378 5373 5368 5364 5360 5355 5351 5347 5343 5340 5336 5332 5329 5325 5323 5321 5319 5316 5315 5315 5316 5318 5320 5320 5321 5323 5327 5332 5337 5342 5348
5402 5397 5392 5387 5382 5377 5372 5367 5362 5358 5353 5349 5345 5341 5337 5333 5329 5326 5322 5319 5315 5313 5310 5308 5306 5305 5305 5305 5306 5308 5309 5311 5313 5317 5321 5326 5331 5338
5391 5386 5382 5376 5371 5366 5361 5357 5352 5347 5343 5339 5335 5330 5326 5323 5319 5315 5312 5308 5306 5303 5301 5299 5297 5296 5295 5295 5296 5297 5299 5301 5304 5308 5312 5316 5322 5328